Regional Weather Roundup
Issued by NWS

Home | Current Version | Previous Version | Graphics & Text | Print | Product List | Glossary On
Versions: 1 2 3 4 5 6 7 8 9 10 11 12 13 14 15 16 17 18 19 20 21 22 23 24 25 26 27 28 29 30 31 32 33 34 35 36 37 38 39 40 41 42 43 44 45 46 47 48 49 50
000
ASUS43 KMPX 050101
RWRMN
WEATHER ROUNDUP FOR MINNESOTA
NATIONAL WEATHER SERVICE TWIN CITIES/CHANHASSEN MN
800 PM CDT SAT JUL 04 2015


NOTE: "FAIR" INDICATES FEW OR NO CLOUDS BELOW 12,000 FEET WITH NO
SIGNIFICANT WEATHER AND/OR OBSTRUCTIONS TO VISIBILITY. N/A MEANS
CURRENT SKY AND/OR WEATHER CONDITIONS ARE NOT AVAILABLE.

MNZ060>063-068>070-050200-
   Twin Cities Metro

CITY           SKY/WX    TMP DP  RH WIND       PRES   REMARKS
TWIN CITIES    CLEAR     81  64  56 S9        29.89S HAZE
ST PAUL        CLEAR     79  66  64 S10       29.89S HAZE
CRYSTAL        CLEAR     82  64  54 SW12G20   29.87S HAZE
BLAINE         PTCLDY    82  64  54 S9        29.88S
LAKEVILLE      CLEAR     73  64  73 S5        29.91S
EDEN PRAIRIE   CLEAR     78  64  61 S8        29.88S HAZE
SOUTH ST PAUL  CLEAR     80  63  56 S9        29.89S
LAKE ELMO      FAIR      79  66  65 S8        29.90S
$$
MNZ001>005-007-008-013>017-022>024-027-028-050200-
   Northwest Minnesota

CITY           SKY/WX    TMP DP  RH WIND       PRES   REMARKS
BEMIDJI        SUNNY     78  65  65 S10       29.80R HAZE
HALLOCK        PTSUNNY   79  68  69 S8        29.72R
ROSEAU         MOSUNNY   79  70  73 S5        29.76R HAZE
WARROAD        MOSUNNY   79  68  69 S3        29.77R HAZE
THIEF RVR FALL SUNNY     79  66  65 S8        29.76S
CROOKSTON      SUNNY     81  66  61 S14       29.74S
FOSSTON        SUNNY     75  64  69 S10       29.80R HAZE
DETROIT LAKES  SUNNY     79  64  61 S12       29.81S
MOORHEAD       SUNNY     81  66  61 S14       29.76R
PARK RAPIDS    MOSUNNY   79  65  62 S10       29.82S
MAHNOMEN       FAIR      78  66  65 S12       29.79R
$$
MNZ006-009>011-018-025>026-050200-
   North Central Minnesota

CITY           SKY/WX    TMP DP  RH WIND       PRES   REMARKS
BAUDETTE       SUNNY     77  63  61 S8        29.79R HAZE
FLAG ISLAND    PTSUNNY   73  66  78 S7        29.75R HAZE
INTL FALLS     SUNNY     75  59  57 CALM      29.81R
WASKISH        SUNNY     77  64  65 S3        29.80R HAZE
BIG FORK       SUNNY     75  61  60 S6        29.82F
LONGVILLE      SUNNY     75  64  69 SE7       29.83S HAZE
GRAND RAPIDS   CLEAR     75  63  64 S8        29.84F
CRANE LAKE     CLEAR     75  59  57 S5        29.83F
ORR            CLEAR     73  57  56 CALM      29.81F
COOK           CLEAR     75  57  53 S7        29.84F
WALKER         FAIR      77  64  64 S8        29.80F HAZE
$$
MNZ012-019>021-037-050200-
   Northeast Minnesota

CITY           SKY/WX    TMP DP  RH WIND       PRES   REMARKS
DULUTH         CLEAR     67  57  70 SE9       29.90F
ELY            CLEAR     73  55  53 S10       29.87F
HIBBING        CLEAR     75  60  59 SE8       29.85F
DULUTH HARBOR  CLEAR     63  59  88 NE12      29.91F
TWO HARBORS    CLEAR     70  59  68 E10       29.89F
SILVER BAY     CLEAR     63  55  77 NE5       29.91S
GRAND MARAIS     N/A     55  50  83 NE6       29.92F
G MARAIS ARPRT PTCLDY    61  52  72 E6        29.96F
$$
MNZ029>031-032-039>041-046>048-054>057-064-050200-
   West Central Minnesota

CITY           SKY/WX    TMP DP  RH WIND       PRES   REMARKS
FERGUS FALLS   SUNNY     79  64  61 S14       29.78F
WHEATON        SUNNY     79  64  61 SE14      29.80F
MORRIS         SUNNY     81  64  57 S10       29.82S
ALEXANDRIA     SUNNY     78  65  63 S9        29.86F
ELBOW LAKE     FAIR      77  65  66 S13       29.82S
WADENA         SUNNY     79  64  61 S9        29.82F
GLENWOOD       SUNNY     77  66  69 S8        29.86F
APPLETON       SUNNY     81  63  54 S5        29.83S
BENSON         SUNNY     79  64  61 S5        29.84S
ORTONVILLE     SUNNY     81  63  54 S8        29.82S
MADISON        SUNNY     79  64  61 S5        29.84S
WILLMAR          N/A     79  66  65 S6        29.87S
$$
MNZ033>034-036-042>043-049>051-058-059-050200-
   Central Minnesota

CITY           SKY/WX    TMP DP  RH WIND       PRES   REMARKS
ST CLOUD       PTCLDY    79  66  64 S10       29.86F
SAUK CENTRE    FAIR      77  67  72 S6        29.85F
PAYNESVILLE    CLEAR     75  64  69 SE7       29.87F
AITKIN         CLEAR     77  66  69 S8        29.83F HAZE
PINE RIVER       N/A     79  64  61 S7        29.86F HAZE
BRAINERD       CLOUDY    78  65  63 S7        29.84F HAZE
STAPLES        SUNNY     79  64  61 S9        29.83F
LONG PRAIRIE   FAIR      75  66  73 SE8       29.86F
LITTLE FALLS   CLEAR     79  63  57 S7        29.86S
LITCHFIELD     PTCLDY    79  68  69 SE5       29.88F
BUFFALO        PTCLDY    79  64  60 S6        29.89S
MAPLE LAKE     PTCLDY    79  67  68 S5        29.89S
$$
MNZ037-044-045-052-053-050200-
   East Central Minnesota

CITY           SKY/WX    TMP DP  RH WIND       PRES   REMARKS
PRINCETON      PTCLDY    81  66  61 S8        29.87F
MORA           PTCLDY    77  63  61 S3        29.88F
CAMBRIDGE      CLEAR     82  66  57 S5        29.86S
RUSH CITY      PTCLDY    77  67  69 SE5       29.88S
MOOSE LAKE     CLEAR     75  63  64 E3        29.86F HAZE
HINCKLEY       FAIR      79  68  69 SE5       29.88S HAZE
CLOQUET        CLEAR     66  55  68 E9        29.90F
MCGREGOR       CLEAR     77  64  65 SE6       29.86F
$$
MNZ071>073-080-081-089-090-097-098-050200-
   Southwest Minnesota

CITY           SKY/WX    TMP DP  RH WIND       PRES   REMARKS
MONTEVIDEO     SUNNY     79  64  61 SW7       29.85S HAZE
GRANITE FALLS  SUNNY     77  64  64 SE6       29.86F
CANBY          SUNNY     78  64  60 S6        29.86S
MARSHALL       SUNNY     79  63  57 S8          N/A
REDWOOD FALLS  PTCLDY    80  62  54 S10       29.86F HAZE
OLIVIA         PTCLDY    77  63  61 S6        29.86S
PIPESTONE      SUNNY     77  64  65 S12G17    29.88F
WINDOM         CLEAR     77  61  57 S6        29.90S
WORTHINGTON    CLEAR     75  61  60 S9        29.90F
JACKSON        CLEAR     77  61  57 S9        29.92S
TRACY          SUNNY     79  64  59 S7        29.88S
SLAYTON        SUNNY     77  62  59 S5        29.90F
$$
MNZ065>067-074>077-082>085-091>093-050200-
   South Central Minnesota

CITY           SKY/WX    TMP DP  RH WIND       PRES   REMARKS
MANKATO        PTCLDY    77  63  61 S9        29.90F
NEW ULM        PTCLDY    77  64  65 S8        29.88S
ST JAMES       PTCLDY    79  64  61 S8        29.91S
FAIRMONT       PTCLDY    75  57  53 S8        29.91F
GLENCOE        PTCLDY    79  67  67 S3        29.88F
FARIBAULT      CLEAR     77  64  65 MISG      29.92S
OWATONNA       CLEAR     77  63  61 S6        29.93S
WASECA         PTCLDY    73  61  64 S6        29.93F
ALBERT LEA     PTCLDY    75  57  53 S5        29.93F
$$
MNZ078>079-086>088-094>096-050200-
   Southeast Minnesota

CITY           SKY/WX    TMP DP  RH WIND       PRES   REMARKS
ROCHESTER      CLEAR     74  63  68 S8        29.96S
RED WING       CLEAR     81  64  57 S6        29.89S
STANTON        CLEAR     77  64  65 S3        29.90S
DODGE CENTER   CLEAR     73  64  73 S7        29.94F
WINONA         CLEAR     77  63  61 CALM      29.93S
AUSTIN         CLEAR     75  61  60 S3        29.94F
PRESTON        CLEAR     73  63  71 S5        29.97S
$$
ABBREVIATIONS USED IN REMARKS
   TC - TEMPERATURES IN CELSIUS
  WCI - WIND CHILL INDEX
   HX - HEAT INDEX
  VSB - VISIBILITY
$$


USA.gov is the U.S. government's official web portal to all federal, state and local government web resources and services.